Hayward, WI

9:46 AM CDT on March 23, 2017 (GMT -0500)
Sawyer County

Weather History for KHYR - May, 2013

Change the Weather History Date:

Tuesday, May 21, 2013

  Actual Average Record
Temperature  
Mean Temperature 50 °F -  
Max Temperature 59 °F 72 °F 82 °F (2016)
Min Temperature 41 °F 45 °F 27 °F (1997)
Degree Days  
Heating Degree Days 16    
Moisture  
Dew Point 43 °F    
Average Humidity 86    
Maximum Humidity 100    
Minimum Humidity 69    
Precipitation  
Precipitation 0.77 in - - ()
Sea Level Pressure  
Sea Level Pressure 29.68 in    
Wind  
Wind Speed 5 mph (NNE)    
Max Wind Speed 8 mph    
Max Gust Speed -    
Visibility 8 miles    
Events Rain    
Averages and records for this station are not official NWS values.
T = Trace of Precipitation, MM = Missing Value Source: NWS Daily Summary

Daily Weather History Graph

Daily Weather History Graph

Search for Another Location

Airport or City:

Trip Planner

Search our weather history database for the weather conditions in past years. The results will help you decide how hot, cold, wet, or windy it might be!

Date:

Astronomy

May. 21, 2013 Rise Set
Actual Time 5:26 AM CDT 8:38 PM CDT
Civil Twilight 4:50 AM CDT 9:14 PM CDT
Nautical Twilight 4:04 AM CDT 10:01 PM CDT
Astronomical Twilight 3:06 AM CDT 10:59 PM CDT
Moon 4:41 PM CDT (5/21) 3:07 AM CDT (5/21)
Length of Visible Light 16h 23m
Length of Day
15h 11m
Waxing Gibbous, 84% of the Moon is Illuminated
May 21
Waxing Gibbous
May 24
Full
May 31
Last Quarter
Jun 8
New
Jun 16
First Quarter

Hourly Weather History & Observations

Time (CDT) Temp. Windchill Dew Point Humidity Pressure Visibility Wind Dir Wind Speed Gust Speed Precip Events Conditions
12:53 AM 46.0 °F 42.5 °F 44.1 °F 93% 29.65 in 10.0 mi NNE 6.9 mph - N/A   Overcast
1:53 AM 44.1 °F 40.8 °F 42.1 °F 93% 29.62 in 10.0 mi Variable 5.8 mph - N/A   Overcast
2:53 AM 44.1 °F 41.5 °F 42.1 °F 93% 29.61 in 10.0 mi Variable 4.6 mph - N/A   Overcast
3:06 AM 44.6 °F 42.2 °F 42.8 °F 93% 29.62 in 10.0 mi Variable 4.6 mph - 0.00 in Rain Light Rain
3:53 AM 46.0 °F - 44.1 °F 93% 29.67 in 3.0 mi Calm Calm - 0.09 in Rain Rain
4:07 AM 44.6 °F 43.1 °F 44.6 °F 100% 29.65 in 4.0 mi NNE 3.5 mph - 0.04 in Rain Rain
4:34 AM 44.6 °F 41.4 °F 44.6 °F 100% 29.63 in 2.5 mi NNE 5.8 mph - 0.23 in Rain Heavy Rain
4:41 AM 44.6 °F 41.4 °F 44.6 °F 100% 29.63 in 2.5 mi NNE 5.8 mph - 0.29 in Rain Heavy Rain
4:53 AM 45.0 °F 42.6 °F 44.1 °F 97% 29.64 in 2.5 mi NNE 4.6 mph - 0.38 in Rain Heavy Rain
5:00 AM 44.6 °F 41.4 °F 42.8 °F 93% 29.63 in 3.0 mi NNE 5.8 mph - 0.03 in Rain Heavy Rain
5:09 AM 44.6 °F 40.7 °F 42.8 °F 93% 29.62 in 4.0 mi NNE 6.9 mph - 0.06 in Rain Rain
5:53 AM 44.1 °F 42.5 °F 42.1 °F 93% 29.64 in 8.0 mi NNE 3.5 mph - 0.18 in Rain Rain
6:10 AM 42.8 °F 39.3 °F 42.8 °F 100% 29.63 in 8.0 mi Variable 5.8 mph - 0.03 in Rain Light Rain
6:27 AM 42.8 °F 38.0 °F 41.0 °F 93% 29.61 in 7.0 mi NNE 8.1 mph - 0.05 in Rain Rain
6:48 AM 42.8 °F 39.3 °F 41.0 °F 93% 29.62 in 10.0 mi NNE 5.8 mph - 0.06 in Rain Light Rain
6:53 AM 42.1 °F 37.1 °F 39.9 °F 92% 29.63 in 10.0 mi NNE 8.1 mph - 0.06 in Rain Light Rain
7:53 AM 43.0 °F 39.5 °F 41.0 °F 93% 29.65 in 10.0 mi North 5.8 mph - 0.00 in   Overcast
8:14 AM 44.6 °F 40.7 °F 41.0 °F 87% 29.64 in 10.0 mi NNE 6.9 mph - N/A   Overcast
8:53 AM 45.0 °F - 42.1 °F 90% 29.67 in 10.0 mi Calm Calm - N/A   Overcast
9:53 AM 46.9 °F - 43.0 °F 86% 29.68 in 10.0 mi Variable 5.8 mph - N/A   Overcast
10:53 AM 46.9 °F - 43.0 °F 86% 29.66 in 10.0 mi Variable 6.9 mph - N/A   Overcast
11:53 AM 50.0 °F - 45.0 °F 83% 29.68 in 10.0 mi Variable 4.6 mph - N/A   Overcast
12:31 PM 53.6 °F - 46.4 °F 77% 29.66 in 10.0 mi ENE 3.5 mph - N/A   Overcast
12:53 PM 57.0 °F - 48.0 °F 72% 29.67 in 10.0 mi Variable 6.9 mph - N/A   Overcast
1:10 PM 55.4 °F - 46.4 °F 72% 29.65 in 10.0 mi Variable 5.8 mph - N/A   Overcast
1:30 PM 55.4 °F - 46.4 °F 72% 29.65 in 2.5 mi Variable 6.9 mph - N/A   Haze
1:38 PM 55.4 °F - 46.4 °F 72% 29.65 in 10.0 mi Variable 5.8 mph - N/A   Overcast
1:53 PM 54.0 °F - 46.0 °F 75% 29.67 in 10.0 mi Variable 6.9 mph - N/A   Overcast
2:53 PM 57.0 °F - 46.9 °F 69% 29.69 in 10.0 mi Variable 3.5 mph - N/A   Overcast
3:53 PM 57.0 °F - 46.9 °F 69% 29.68 in 10.0 mi Variable 5.8 mph - N/A   Overcast
4:53 PM 55.0 °F - 46.9 °F 74% 29.70 in 10.0 mi Calm Calm - N/A   Overcast
5:02 PM 55.4 °F - 46.4 °F 72% 29.68 in 10.0 mi Variable 4.6 mph - N/A   Overcast
5:53 PM 55.0 °F - 46.9 °F 74% 29.71 in 10.0 mi Variable 3.5 mph - N/A   Overcast
6:53 PM 52.0 °F - 45.0 °F 77% 29.72 in 10.0 mi Variable 4.6 mph - 0.00 in   Overcast
7:22 PM 50.0 °F - 44.6 °F 82% 29.71 in 10.0 mi Variable 6.9 mph - N/A   Overcast
7:41 PM 48.2 °F - 44.6 °F 87% 29.72 in 10.0 mi NNE 8.1 mph - N/A   Overcast
7:53 PM 46.9 °F - 43.0 °F 86% 29.75 in 10.0 mi NE 6.9 mph - N/A   Overcast
8:19 PM 46.4 °F 44.3 °F 42.8 °F 87% 29.73 in 10.0 mi NE 4.6 mph - N/A   Overcast
8:27 PM 46.4 °F 43.5 °F 42.8 °F 87% 29.73 in 10.0 mi Variable 5.8 mph - N/A   Overcast
8:53 PM 45.0 °F 42.6 °F 41.0 °F 86% 29.76 in 10.0 mi Variable 4.6 mph - N/A   Overcast
9:33 PM 42.8 °F 38.6 °F 41.0 °F 93% 29.76 in 2.5 mi Variable 6.9 mph - 0.02 in Rain Light Rain
9:53 PM 42.1 °F 38.4 °F 39.9 °F 92% 29.79 in 3.0 mi NNE 5.8 mph - 0.05 in Rain Light Rain
10:23 PM 42.8 °F 41.1 °F 39.2 °F 87% 29.76 in 3.0 mi Variable 3.5 mph - 0.01 in Rain Light Rain
10:53 PM 42.1 °F 37.1 °F 39.9 °F 92% 29.79 in 10.0 mi NE 8.1 mph - 0.01 in   Overcast
11:53 PM 41.0 °F 39.0 °F 39.0 °F 93% 29.78 in 10.0 mi Variable 3.5 mph - N/A   Overcast